Theta_e
319 318 318 317 316 316 316 316 317 317 318 318 317 317 317 319 319 319 319 319 319 319 319 319 318 319 319 314 310 317 331 329 322 319 313 311 309 309 305 308 309 305 307 308 309 309 308
317 316 316 315 314 314 315 314 315 315 316 317 317 316 316 318 319 319 319 318 317 317 318 318 318 318 315 307 317 320 319 318 316 315 313 312 310 309 305 306 305 307 306 307 308 307 307
316 315 315 314 314 313 313 313 314 314 314 315 316 315 315 317 318 319 319 318 317 317 318 318 319 319 315 308 318 320 319 316 315 314 312 313 312 308 309 305 310 308 303 304 305 306 306
315 314 314 314 313 312 312 312 313 313 314 314 315 314 315 316 317 318 319 318 318 318 318 320 320 319 307 316 319 316 317 316 317 316 313 314 312 309 308 310 306 302 303 299 307 307 307
314 313 313 313 313 311 311 312 312 312 313 314 314 313 314 315 317 317 318 317 320 322 322 323 320 319 306 319 312 314 316 313 314 314 314 313 311 308 308 302 300 303 297 300 303 308 306
313 313 312 312 312 311 312 312 312 312 313 314 314 314 314 315 316 316 316 316 319 318 320 319 318 310 310 308 311 313 315 313 310 310 309 308 308 304 304 302 295 297 297 298 298 303 304
312 312 312 311 310 311 311 311 311 312 313 313 314 313 314 314 315 315 314 315 310 310 315 307 307 307 308 311 313 312 313 312 310 308 302 308 302 299 302 303 301 299 297 297 300 304 302
311 311 311 310 310 310 310 311 311 312 312 313 313 313 314 314 314 313 314 314 313 314 306 309 308 308 310 311 305 310 314 308 306 302 305 302 299 304 304 303 300 299 298 298 302 305 304
311 311 310 310 310 310 310 310 310 311 311 311 311 312 313 313 313 314 315 314 319 317 308 306 307 307 307 309 305 305 310 307 304 302 302 300 302 305 302 301 300 300 299 299 299 302 304
310 310 310 310 309 310 309 310 310 311 311 311 311 312 312 312 313 318 314 318 319 318 304 302 304 307 308 308 304 310 311 307 305 301 303 302 305 303 302 300 302 297 303 301 300 298 293
309 309 310 309 309 309 309 309 310 310 310 310 311 312 312 310 316 312 313 320 320 317 295 302 304 311 309 304 304 306 311 308 303 303 303 301 302 301 299 301 303 298 303 301 300 297 297
309 309 309 309 309 308 308 308 309 309 310 310 310 311 311 318 320 317 318 320 318 303 293 299 303 303 303 305 304 305 306 311 310 305 306 304 308 304 303 304 303 304 301 300 301 299 292
308 308 308 309 308 308 308 308 308 309 309 309 309 310 310 319 314 318 317 315 302 296 302 299 299 302 301 301 301 302 302 302 301 296 298 301 303 305 305 300 303 302 298 290 289 289 289
307 307 307 308 308 308 307 308 308 308 308 309 308 307 315 319 321 318 315 307 297 301 300 302 301 301 298 301 300 300 300 299 304 301 297 295 294 302 304 301 298 298 298 291 284 286 289
307 307 307 307 308 307 307 307 307 307 307 307 306 322 320 320 321 318 310 300 299 300 301 300 301 298 299 301 300 300 300 298 300 302 295 294 295 304 304 303 302 298 295 301 294 295 290
306 306 306 307 307 307 307 307 307 308 307 307 313 320 315 319 322 316 308 300 301 304 303 302 297 300 296 299 298 299 299 302 299 301 303 299 292 300 303 304 303 301 303 294 295 285 284
306 306 306 307 307 307 307 307 307 307 306 306 317 315 315 319 320 314 303 303 303 305 304 301 300 298 299 298 299 298 298 301 302 301 302 299 296 295 301 298 298 298 297 298 297 294 287
305 305 306 306 306 306 306 306 306 306 305 310 317 306 315 318 309 309 304 304 297 303 305 303 302 302 300 300 298 298 298 300 304 302 297 300 297 292 294 301 303 301 299 299 293 290 295
305 305 306 306 306 306 306 306 306 306 305 306 312 310 317 315 302 303 306 303 303 302 303 302 301 303 304 300 295 299 300 305 303 301 298 300 295 288 291 298 303 299 300 299 299 298 290
304 304 305 305 306 306 306 306 306 306 305 308 311 303 307 311 309 303 302 302 301 306 303 303 302 303 302 300 303 299 300 304 305 304 303 301 295 291 288 292 296 293 296 297 296 288 290
304 304 304 304 305 306 306 306 306 305 305 310 309 304 306 300 303 303 303 302 300 300 305 305 302 303 301 292 298 298 301 302 304 307 304 301 293 295 295 297 297 295 294 295 294 296 290
303 304 304 304 304 305 306 306 306 305 304 310 303 302 304 304 305 303 300 301 300 301 302 300 300 301 301 299 298 297 300 300 299 303 302 306 296 296 293 296 295 292 295 295 295 296 296
302 303 303 303 304 304 305 306 306 306 306 308 307 307 305 302 304 300 300 299 299 301 302 303 302 300 299 301 304 304 304 304 303 300 298 300 299 290 288 294 292 288 294 296 298 298 298
302 302 303 303 303 303 304 305 306 306 305 306 308 305 301 298 300 299 299 300 299 300 298 301 303 300 304 308 306 304 302 301 301 302 304 298 297 294 287 290 281 294 301 299 298 299 300
301 302 302 302 303 303 303 304 305 306 306 305 308 303 301 295 299 300 299 298 300 301 301 302 303 306 308 303 296 294 294 296 299 303 303 303 298 286 285 286 290 292 298 293 288 292 299
300 301 301 301 302 302 303 303 303 305 305 304 307 309 302 297 299 299 298 299 298 297 297 301 305 308 305 299 294 288 286 291 291 296 304 302 302 290 289 284 281 293 299 304 301 290 300
300 300 300 300 301 302 303 303 303 303 305 304 305 313 302 296 300 300 296 296 299 298 296 299 301 300 304 296 290 289 288 294 289 289 290 292 292 286 286 284 289 298 302 302 288 292 302
300 300 300 300 300 302 303 303 302 303 304 303 304 311 304 298 299 302 302 298 298 298 296 300 297 299 298 294 292 292 291 293 292 294 293 291 289 289 290 286 283 303 300 289 300 303 301
300 300 300 300 300 301 302 302 302 302 303 303 301 308 309 301 299 305 305 306 305 304 300 300 298 299 297 296 294 294 290 291 290 286 296 289 294 288 289 290 303 305 303 307 306 303 301
Wind_Speed
21 23 23 24 24 24 23 21 21 21 21 22 22 22 22 20 16 11 10 9 9 10 10 9 8 9 7 5 10 9 7 14 13 16 6 6 10 7 11 9 7 11 16 16 8 11 13
21 23 24 24 24 23 23 24 24 23 20 20 21 22 22 21 20 17 10 7 8 8 9 7 6 7 7 2 4 7 7 10 7 8 4 9 9 9 10 10 11 14 14 14 15 15 14
23 24 24 24 23 24 24 24 23 23 23 22 20 20 21 22 20 17 14 8 7 7 7 7 4 6 9 7 3 4 9 4 3 6 11 6 9 10 13 11 9 10 14 15 18 15 15
23 24 24 24 24 25 25 25 25 25 23 23 21 21 21 21 21 18 15 12 8 6 8 8 4 6 4 5 5 6 4 7 3 3 5 6 11 11 9 9 12 14 15 13 10 9 4
22 23 23 23 23 25 25 25 26 25 25 23 21 21 21 22 21 18 16 14 13 11 10 9 7 9 7 3 3 4 5 8 7 5 6 5 7 8 9 11 13 18 11 14 10 13 8
22 23 24 25 23 24 24 24 25 24 26 24 24 22 20 20 20 18 16 9 9 13 8 9 12 8 5 1 5 6 1 4 8 8 10 12 10 13 13 12 10 15 15 15 18 17 19
22 23 24 25 25 24 24 25 25 26 25 25 25 24 22 20 19 14 12 5 6 7 12 6 7 3 4 2 3 6 4 10 10 12 12 8 9 11 11 11 12 13 16 17 18 18 21
22 23 24 24 26 25 24 24 25 26 26 26 26 25 25 22 20 13 5 8 6 8 5 3 0 4 1 3 5 4 8 9 3 10 10 8 16 3 8 9 12 13 17 18 16 16 17
21 22 24 24 24 24 25 25 25 26 27 27 27 26 24 24 21 10 2 7 9 6 7 8 2 2 2 5 1 6 9 9 10 11 9 9 14 10 7 9 13 14 15 16 19 18 18
21 23 24 23 23 24 26 26 26 27 27 27 27 26 24 26 5 4 3 8 5 4 7 11 7 5 2 1 5 3 6 7 6 6 7 9 5 6 9 12 13 14 16 17 18 18 17
21 23 22 23 24 25 25 27 27 28 28 27 27 26 24 8 11 7 7 6 3 3 6 3 7 3 4 3 7 5 2 5 8 10 7 2 7 10 10 9 10 15 15 16 19 20 22
21 23 22 23 24 26 26 27 27 28 29 29 27 25 21 5 8 8 6 1 4 7 1 7 1 1 6 5 2 5 2 4 6 9 9 12 12 7 6 12 13 15 18 18 19 19 16
21 22 23 23 25 27 27 28 29 29 30 30 28 24 12 9 7 8 5 5 7 7 3 5 4 4 6 3 5 2 8 4 7 9 4 16 12 9 1 10 11 14 15 10 6 10 12
21 22 22 23 25 27 28 28 30 31 31 31 30 22 9 9 7 6 4 7 7 6 7 3 4 8 2 7 4 5 7 5 8 8 11 7 6 3 3 10 11 15 8 6 12 14 19
20 21 23 25 25 26 28 29 30 31 33 29 30 6 6 1 4 3 6 7 8 10 7 9 12 6 5 6 3 4 7 1 6 6 6 8 7 22 17 4 7 9 9 12 12 16 17
19 21 23 23 24 26 28 30 31 32 34 27 7 9 5 5 3 4 7 5 5 6 6 6 8 4 8 10 9 8 9 7 2 3 3 6 12 12 10 4 15 18 11 8 5 6 13
19 20 21 23 24 26 28 30 32 32 36 32 5 6 6 5 4 7 6 7 4 8 7 6 10 8 10 9 7 9 5 1 6 2 7 11 9 11 18 18 16 13 10 12 7 9 10
18 20 21 24 24 26 28 30 31 31 35 12 7 5 5 3 7 5 8 6 2 5 1 5 5 7 7 8 9 10 9 1 7 4 9 10 7 14 20 25 21 14 14 12 1 9 11
16 19 21 22 24 25 28 29 31 29 23 10 8 4 4 6 5 9 5 7 2 5 4 4 7 8 7 8 6 7 8 5 2 3 4 6 4 10 9 6 7 2 11 16 13 7 12
16 18 20 22 23 25 27 29 32 33 26 9 7 4 5 2 5 9 9 9 6 7 4 6 9 12 11 11 10 9 12 11 8 6 11 5 7 12 11 15 19 24 23 20 18 8 17
15 17 18 20 21 23 26 28 31 36 36 7 4 5 5 7 6 10 8 10 10 8 1 7 6 9 9 2 10 16 13 16 19 11 9 9 14 17 20 21 23 25 28 26 24 23 22
12 15 17 19 20 22 24 26 28 34 41 4 7 6 8 11 8 10 6 6 10 8 12 11 13 17 15 14 12 15 20 17 17 17 18 13 16 18 24 19 23 29 26 27 27 23 21
10 12 15 17 19 20 21 23 25 28 27 6 7 8 7 9 13 7 6 8 13 13 9 10 10 12 14 15 15 16 18 19 21 20 19 18 8 2 18 16 20 20 18 15 15 18 17
8 10 12 15 17 18 19 20 22 23 21 9 8 9 7 8 10 11 15 13 11 12 15 15 14 14 13 15 18 18 22 25 25 25 19 18 15 4 11 10 17 11 18 21 15 15 15
8 9 11 12 14 16 18 18 20 21 22 11 9 7 7 9 12 12 15 14 15 14 14 11 9 10 11 13 15 14 14 20 21 25 18 19 15 4 5 10 21 23 13 0 4 10 17
6 8 10 11 13 14 15 16 17 19 20 11 8 7 8 7 0 17 13 14 11 11 12 12 17 9 12 9 9 11 12 20 12 2 5 4 7 8 6 6 8 7 18 16 8 12 8
6 7 8 9 10 13 15 15 15 17 19 12 7 8 7 9 10 14 12 12 12 11 9 12 9 11 10 6 7 9 13 20 13 11 7 7 3 6 4 6 11 13 9 11 9 11 21
6 7 7 8 9 11 13 14 14 15 16 11 9 5 6 7 17 14 14 15 13 11 9 9 9 6 7 8 7 8 8 11 13 18 9 8 7 9 9 10 15 5 9 2 11 13 11
8 8 7 8 9 11 12 13 13 13 14 13 7 5 5 8 14 23 26 22 18 14 11 7 8 12 4 2 6 5 13 12 17 14 16 12 9 6 6 6 15 22 21 15 18 12 11
Wind_Direction
13 12 12 11 8 6 5 3 2 360 359 358 358 353 348 344 348 351 330 310 285 273 273 283 309 321 286 203 87 134 223 244 255 274 254 301 281 296 270 277 277 258 264 269 246 268 276
12 12 12 11 9 5 3 2 3 2 0 360 356 351 345 342 341 342 342 320 293 274 271 281 293 303 256 169 104 149 252 262 343 319 358 342 356 347 296 292 278 309 307 295 291 279 279
10 10 9 8 7 5 3 1 360 359 1 1 359 352 345 338 340 340 339 346 315 288 274 267 275 286 278 89 312 172 235 347 350 344 327 28 336 303 322 285 303 308 288 283 266 254 252
9 8 7 6 5 4 2 0 0 358 356 359 358 353 345 338 337 335 334 330 324 296 280 265 262 276 71 12 334 237 323 251 229 269 330 335 332 293 275 302 297 265 262 275 320 179 222
9 7 6 4 3 2 359 358 357 357 354 351 351 352 344 337 332 329 324 319 303 303 272 269 246 217 130 135 226 20 317 312 344 276 252 284 283 274 299 246 273 231 251 294 218 179 212
9 8 5 4 2 359 357 355 353 352 352 348 345 344 339 333 327 326 316 292 311 300 228 250 262 264 164 159 54 301 317 254 277 298 269 216 241 242 240 243 298 331 324 313 305 310 304
7 7 6 4 2 359 356 354 351 348 347 345 342 340 337 331 324 330 321 244 217 206 241 327 25 46 109 15 167 238 345 283 244 248 261 233 269 277 359 4 330 310 298 295 294 296 288
6 5 4 3 360 357 354 353 349 347 344 342 340 338 333 329 322 315 268 254 32 317 270 195 180 139 266 273 231 115 325 306 309 272 294 252 228 9 12 313 293 287 283 282 289 299 309
5 3 2 360 357 354 353 351 349 345 342 340 337 335 333 325 322 291 286 356 307 321 269 144 95 350 331 280 69 12 341 317 276 270 270 296 304 18 322 299 292 290 294 301 308 318 295
4 2 360 356 354 353 353 350 347 344 340 338 335 332 331 323 300 303 50 334 268 6 267 139 183 112 252 116 191 3 347 316 268 315 322 274 24 311 295 304 313 306 331 320 309 307 295
4 1 358 355 351 351 352 349 345 342 338 337 333 329 326 320 309 21 343 326 318 253 259 111 103 46 194 7 330 127 37 314 292 328 307 334 340 321 317 329 339 302 309 303 295 283 283
3 1 358 354 349 351 352 348 345 340 336 335 332 327 330 235 223 3 346 39 240 232 144 131 261 316 261 157 99 303 286 201 262 290 277 274 274 263 328 326 292 296 294 290 279 266 256
3 0 358 354 351 351 351 348 343 341 336 334 330 323 312 312 342 350 328 237 244 260 174 96 13 341 335 330 306 318 322 291 3 330 306 321 281 100 116 316 319 326 322 319 304 319 307
1 359 358 357 353 350 349 348 344 340 338 333 327 319 230 269 338 346 259 238 260 63 49 57 277 304 262 13 22 331 292 346 122 359 316 340 309 159 63 309 322 300 282 283 295 305 306
359 357 358 358 352 350 348 348 345 342 338 337 314 234 245 17 357 285 255 251 14 12 14 348 299 254 192 156 208 305 310 280 32 7 340 314 275 332 312 14 329 327 297 337 303 293 288
358 357 358 356 353 351 349 348 347 345 339 340 313 278 82 321 93 249 254 264 37 52 340 323 299 20 330 335 328 334 315 89 342 96 342 316 301 292 296 289 260 239 264 308 298 294 294
359 358 357 356 354 351 352 349 348 348 340 323 266 246 69 325 180 250 268 26 4 87 354 329 337 307 313 317 317 312 287 154 127 319 329 297 264 282 304 282 288 318 262 251 278 274 268
0 356 359 357 355 354 352 350 348 352 343 338 310 292 38 327 263 231 43 20 346 326 222 296 310 297 300 336 307 300 303 40 67 346 304 316 292 286 286 284 273 258 276 296 66 282 274
2 359 0 357 355 355 353 350 347 350 4 313 302 310 89 299 312 3 50 302 211 306 335 315 304 300 311 305 319 303 305 350 216 249 342 12 311 313 306 257 119 278 310 313 297 301 279
1 360 0 359 356 355 354 351 348 344 347 316 285 319 23 303 89 344 4 308 327 151 299 288 296 307 289 292 303 283 277 292 296 216 148 159 237 248 266 289 304 293 290 288 283 267 278
3 359 1 0 359 356 353 354 351 344 337 308 342 43 16 326 17 335 312 307 299 310 166 332 288 281 288 215 288 293 282 309 297 271 218 214 250 261 268 277 285 297 295 291 280 268 246
3 358 0 359 357 358 354 355 356 351 336 59 357 353 341 294 318 303 284 306 341 347 341 314 308 312 314 302 296 297 308 305 293 292 287 255 263 269 272 286 291 285 285 284 286 290 291
357 355 0 359 358 358 355 357 358 2 347 351 20 343 285 297 286 296 9 344 317 320 309 308 310 314 299 301 318 308 302 289 277 276 274 282 281 81 270 291 306 292 270 274 292 293 280
345 350 355 355 356 354 357 357 357 1 6 320 354 324 305 300 324 329 328 303 301 318 315 310 303 283 314 342 314 290 274 265 258 252 240 248 244 231 274 299 274 253 314 324 321 303 337
337 338 343 348 350 352 353 359 356 354 358 334 318 348 331 310 317 301 351 322 315 298 279 314 3 9 340 322 303 298 297 278 272 254 232 213 230 189 236 249 276 287 288 110 112 299 298
322 331 343 339 339 346 350 353 356 351 352 335 331 342 318 306 197 333 315 301 296 340 312 327 337 9 319 294 315 297 305 301 289 302 248 321 229 183 181 236 273 300 327 14 334 289 27
295 318 324 329 333 339 348 348 353 352 346 332 292 353 315 293 265 3 323 314 311 303 303 304 330 319 322 279 287 282 283 302 315 333 346 321 303 249 218 256 275 282 19 342 280 326 338
278 296 307 321 327 335 343 344 346 350 346 338 314 313 330 307 293 291 334 308 303 298 294 322 355 9 330 305 287 309 298 310 317 314 307 286 296 278 274 285 279 69 352 116 301 314 307
264 280 295 308 319 326 332 340 338 343 339 337 289 355 329 287 291 301 286 271 263 277 274 275 283 297 259 325 339 320 310 303 287 289 306 297 296 284 275 252 311 312 309 314 316 327 314